When you browse on this site, cookies collect data to enhance your experience and personalize the content and advertising you see.
Visit our Privacy Policy to learn more. By continuing to use the site, you agree to this use of cookies and data.
  • In Spain
  • List of Countries
  • For 7 days
  • Water Temperature
  • Satellite Maps
  • Weather Map
  • Weather Widgets
  • user-avatar
    Login

    Hourly Weather Atlixco

    Today, 14 December, Friday

    Time Temperature Precipitation Wind Pressure Humidity
    00:00 +14°C° 0 mm 1 mps 611 mmHg 72%
    01:00 +14°C° 0 mm 1 mps 611 mmHg 73%
    02:00 +14°C° 0 mm 1 mps 611 mmHg 74%
    03:00 +13°C° 0 mm 1 mps 611 mmHg 75%
    04:00 +13°C° 0 mm 1 mps 611 mmHg 76%
    05:00 +13°C° 0 mm 1 mps 611 mmHg 77%
    06:00 +14°C° 0 mm 1 mps 612 mmHg 71%
    07:00 +16°C° 0 mm 1 mps 613 mmHg 66%
    08:00 +16°C° 0 mm 0 mps 613 mmHg 61%
    09:00 +20°C° 0 mm 1 mps 614 mmHg 55%
    10:00 +20°C° 0 mm 2 mps 614 mmHg 50%
    11:00 +22°C° 0 mm 3 mps 614 mmHg 45%
    12:00 +22°C° 0 mm 3 mps 614 mmHg 44%
    13:00 +22°C° 0 mm 3 mps 613 mmHg 43%
    14:00 +22°C° 0 mm 3 mps 613 mmHg 43%
    15:00 +21°C° 0 mm 2 mps 613 mmHg 48%
    16:00 +19°C° 0 mm 2 mps 612 mmHg 53%
    17:00 +18°C° 0 mm 2 mps 612 mmHg 58%
    18:00 +17°C° 0 mm 2 mps 612 mmHg 61%
    19:00 +16°C° 0 mm 1 mps 613 mmHg 64%
    20:00 +15°C° 0 mm 1 mps 613 mmHg 66%
    21:00 +15°C° 0 mm 1 mps 613 mmHg 69%
    22:00 +14°C° 0 mm 1 mps 613 mmHg 71%
    23:00 +14°C° 0 mm 1 mps 613 mmHg 73%

    Tomorrow, 15 December, Saturday

    Time Temperature Precipitation Wind Pressure Humidity
    00:00 +14°C° 0 mm 1 mps 613 mmHg 74%
    01:00 +13°C° 0 mm 1 mps 612 mmHg 75%
    02:00 +13°C° 0 mm 1 mps 612 mmHg 77%
    03:00 +13°C° 0 mm 1 mps 612 mmHg 77%
    04:00 +13°C° 0 mm 1 mps 612 mmHg 78%
    05:00 +12°C° 0 mm 1 mps 612 mmHg 79%
    06:00 +14°C° 0 mm 1 mps 613 mmHg 74%
    07:00 +15°C° 0 mm 1 mps 614 mmHg 69%
    08:00 +16°C° 0 mm 1 mps 614 mmHg 64%
    09:00 +18°C° 0 mm 1 mps 615 mmHg 58%
    10:00 +19°C° 0 mm 2 mps 615 mmHg 52%
    11:00 +21°C° 0 mm 2 mps 616 mmHg 45%
    12:00 +21°C° 0 mm 2 mps 615 mmHg 44%
    13:00 +23°C° 0 mm 2 mps 614 mmHg 43%
    14:00 +23°C° 0 mm 2 mps 614 mmHg 41%
    15:00 +21°C° 0 mm 2 mps 614 mmHg 46%
    16:00 +19°C° 0 mm 2 mps 613 mmHg 52%
    17:00 +18°C° 0 mm 2 mps 613 mmHg 57%
    18:00 +18°C° 0 mm 1 mps 613 mmHg 61%
    19:00 +16°C° 0 mm 1 mps 613 mmHg 64%
    20:00 +15°C° 0 mm 1 mps 614 mmHg 68%
    21:00 +14°C° 0 mm 1 mps 614 mmHg 69%
    22:00 +14°C° 0 mm 1 mps 614 mmHg 70%
    23:00 +14°C° 0 mm 1 mps 614 mmHg 71%

    Day after tomorrow, 16 December, Sunday

    Time Temperature Precipitation Wind Pressure Humidity
    00:00 +13°C° 0 mm 1 mps 613 mmHg 72%
    01:00 +13°C° 0 mm 1 mps 613 mmHg 73%
    02:00 +13°C° 0 mm 1 mps 613 mmHg 75%
    03:00 +12°C° 0 mm 1 mps 613 mmHg 76%
    04:00 +12°C° 0 mm 1 mps 613 mmHg 76%
    05:00 +12°C° 0 mm 1 mps 613 mmHg 77%
    06:00 +13°C° 0 mm 1 mps 614 mmHg 71%
    07:00 +15°C° 0 mm 1 mps 615 mmHg 66%
    08:00 +16°C° 0 mm 1 mps 616 mmHg 60%
    09:00 +19°C° 0 mm 1 mps 616 mmHg 53%
    10:00 +21°C° 0 mm 1 mps 616 mmHg 47%
    11:00 +23°C° 0 mm 1 mps 616 mmHg 40%
    12:00 +23°C° 0 mm 2 mps 616 mmHg 39%
    13:00 +24°C° 0 mm 2 mps 615 mmHg 38%
    14:00 +24°C° 0 mm 2 mps 614 mmHg 37%
    15:00 +21°C° 0 mm 2 mps 614 mmHg 43%
    16:00 +20°C° 0 mm 2 mps 613 mmHg 49%
    17:00 +19°C° 0 mm 1 mps 613 mmHg 55%
    18:00 +18°C° 0 mm 1 mps 613 mmHg 58%
    19:00 +18°C° 0 mm 1 mps 614 mmHg 61%
    20:00 +16°C° 0 mm 1 mps 614 mmHg 64%
    21:00 +15°C° 0 mm 1 mps 614 mmHg 66%
    22:00 +15°C° 0 mm 1 mps 614 mmHg 68%
    23:00 +14°C° 0 mm 1 mps 614 mmHg 69%

    17 December, Monday

    Time Temperature Precipitation Wind Pressure Humidity
    00:00 +14°C° 0 mm 1 mps 613 mmHg 71%
    01:00 +14°C° 0 mm 1 mps 613 mmHg 73%
    02:00 +13°C° 0 mm 1 mps 612 mmHg 75%
    03:00 +13°C° 0 mm 1 mps 612 mmHg 76%
    04:00 +13°C° 0 mm 1 mps 612 mmHg 77%
    05:00 +12°C° 0 mm 1 mps 612 mmHg 78%
    06:00 +14°C° 0 mm 1 mps 613 mmHg 72%
    07:00 +15°C° 0 mm 1 mps 614 mmHg 67%
    08:00 +18°C° 0 mm 1 mps 615 mmHg 61%
    09:00 +19°C° 0 mm 1 mps 615 mmHg 55%
    10:00 +21°C° 0 mm 1 mps 616 mmHg 50%
    11:00 +23°C° 0 mm 2 mps 616 mmHg 44%
    12:00 +23°C° 0 mm 2 mps 615 mmHg 44%
    13:00 +23°C° 0 mm 2 mps 614 mmHg 43%
    14:00 +24°C° 0 mm 2 mps 614 mmHg 42%
    15:00 +21°C° 0 mm 2 mps 613 mmHg 47%
    16:00 +19°C° 0 mm 2 mps 613 mmHg 52%
    17:00 +19°C° 0 mm 1 mps 612 mmHg 57%
    18:00 +18°C° 0 mm 1 mps 613 mmHg 60%
    19:00 +16°C° 0 mm 1 mps 613 mmHg 63%
    20:00 +16°C° 0 mm 1 mps 613 mmHg 66%
    21:00 +15°C° 0 mm 1 mps 613 mmHg 67%
    22:00 +15°C° 0 mm 1 mps 612 mmHg 69%
    23:00 +14°C° 0 mm 1 mps 612 mmHg 70%

    18 December, Tuesday

    Time Temperature Precipitation Wind Pressure Humidity
    00:00 +14°C° 0 mm 1 mps 612 mmHg 72%
    01:00 +14°C° 0 mm 1 mps 611 mmHg 73%
    02:00 +14°C° 0 mm 1 mps 611 mmHg 75%
    03:00 +13°C° 0 mm 1 mps 611 mmHg 76%
    04:00 +13°C° 0 mm 1 mps 611 mmHg 77%
    05:00 +12°C° 0 mm 0 mps 611 mmHg 78%
    06:00 +13°C° 0 mm 0 mps 612 mmHg 73%
    07:00 +15°C° 0 mm 0 mps 613 mmHg 68%
    08:00 +16°C° 0 mm 0 mps 613 mmHg 63%
    09:00 +20°C° 0 mm 1 mps 614 mmHg 57%
    10:00 +21°C° 0 mm 1 mps 614 mmHg 52%
    11:00 +23°C° 0 mm 2 mps 614 mmHg 46%
    12:00 +23°C° 0 mm 2 mps 613 mmHg 45%
    13:00 +22°C° 0 mm 3 mps 612 mmHg 44%
    14:00 +24°C° 0 mm 3 mps 612 mmHg 44%
    15:00 +21°C° 0 mm 3 mps 612 mmHg 49%
    16:00 +20°C° 0 mm 2 mps 611 mmHg 54%
    17:00 +18°C° 0 mm 2 mps 611 mmHg 59%
    18:00 +19°C° 0 mm 1 mps 611 mmHg 62%
    19:00 +18°C° 0 mm 1 mps 612 mmHg 64%
    20:00 +18°C° 0 mm 1 mps 612 mmHg 66%
    21:00 +16°C° 0 mm 1 mps 612 mmHg 67%
    22:00 +16°C° 0 mm 1 mps 611 mmHg 68%
    23:00 +16°C° 0 mm 1 mps 611 mmHg 69%

    19 December, Wednesday

    Time Temperature Precipitation Wind Pressure Humidity
    00:00 +15°C° 0 mm 1 mps 611 mmHg 70%
    01:00 +15°C° 0 mm 1 mps 610 mmHg 71%
    02:00 +15°C° 0 mm 1 mps 610 mmHg 71%
    03:00 +14°C° 0.1 mm 1 mps 610 mmHg 72%
    04:00 +14°C° 0.1 mm 1 mps 610 mmHg 72%
    05:00 +14°C° 0.1 mm 1 mps 610 mmHg 73%
    06:00 +15°C° 0.2 mm 1 mps 611 mmHg 70%
    07:00 +16°C° 0.2 mm 1 mps 611 mmHg 67%
    08:00 +18°C° 0.2 mm 1 mps 612 mmHg 64%
    09:00 +19°C° 0.2 mm 1 mps 612 mmHg 61%
    10:00 +19°C° 0.2 mm 2 mps 612 mmHg 57%
    11:00 +19°C° 0.2 mm 2 mps 612 mmHg 54%
    12:00 +19°C° 0.4 mm 2 mps 611 mmHg 56%
    13:00 +19°C° 0.4 mm 3 mps 611 mmHg 58%
    14:00 +19°C° 0.4 mm 3 mps 610 mmHg 59%
    15:00 +18°C° 0.2 mm 2 mps 610 mmHg 65%
    16:00 +17°C° 0.2 mm 2 mps 610 mmHg 70%
    17:00 +16°C° 0.2 mm 2 mps 610 mmHg 75%
    18:00 +15°C° 0.4 mm 1 mps 610 mmHg 77%
    19:00 +15°C° 0.4 mm 1 mps 610 mmHg 79%
    20:00 +14°C° 0.4 mm 1 mps 611 mmHg 81%
    21:00 +14°C° 0.3 mm 1 mps 610 mmHg 81%
    22:00 +14°C° 0.3 mm 1 mps 610 mmHg 82%
    23:00 +13°C° 0.3 mm 1 mps 610 mmHg 82%
    Show more